When you browse on this site, cookies collect data to enhance your experience and personalize the content and advertising you see.
Visit our Privacy Policy to learn more. By continuing to use the site, you agree to this use of cookies and data.
  • In United Kingdom
  • List of Countries
  • For 7 days
  • Water Temperature
  • Satellite Maps
  • Weather Map
  • Weather Widgets
  • user-avatar
    Login

    Hourly Weather Sarafovo

    Today, 15 December, Saturday

    Time Temperature Precipitation Wind Pressure Humidity
    00:00 +5°C° 0.1 mm 3 mps 762 mmHg 93%
    01:00 +5°C° 0.1 mm 3 mps 762 mmHg 93%
    02:00 +7°C° 0.1 mm 3 mps 761 mmHg 94%
    03:00 +7°C° 0.2 mm 3 mps 761 mmHg 95%
    04:00 +7°C° 0.2 mm 3 mps 761 mmHg 95%
    05:00 +7°C° 0.2 mm 3 mps 761 mmHg 96%
    06:00 +7°C° 0.1 mm 3 mps 761 mmHg 96%
    07:00 +8°C° 0.1 mm 3 mps 761 mmHg 96%
    08:00 +8°C° 0.1 mm 2 mps 760 mmHg 97%
    09:00 +9°C° 0.1 mm 2 mps 761 mmHg 95%
    10:00 +9°C° 0.1 mm 2 mps 761 mmHg 94%
    11:00 +10°C° 0.1 mm 3 mps 761 mmHg 92%
    12:00 +12°C° 0 mm 2 mps 760 mmHg 91%
    13:00 +12°C° 0 mm 2 mps 760 mmHg 89%
    14:00 +13°C° 0 mm 2 mps 760 mmHg 87%
    15:00 +11°C° 0.1 mm 3 mps 760 mmHg 90%
    16:00 +11°C° 0.1 mm 3 mps 760 mmHg 92%
    17:00 +10°C° 0.1 mm 3 mps 760 mmHg 94%
    18:00 +10°C° 0.3 mm 3 mps 760 mmHg 94%
    19:00 +10°C° 0.3 mm 3 mps 760 mmHg 94%
    20:00 +10°C° 0.3 mm 3 mps 760 mmHg 94%
    21:00 +10°C° 0.1 mm 3 mps 760 mmHg 93%
    22:00 +10°C° 0.1 mm 3 mps 760 mmHg 93%
    23:00 +10°C° 0.1 mm 3 mps 760 mmHg 92%

    Tomorrow, 16 December, Sunday

    Time Temperature Precipitation Wind Pressure Humidity
    00:00 +10°C° 0 mm 3 mps 760 mmHg 91%
    01:00 +10°C° 0 mm 3 mps 760 mmHg 91%
    02:00 +10°C° 0 mm 3 mps 759 mmHg 90%
    03:00 +10°C° 0.1 mm 3 mps 759 mmHg 91%
    04:00 +10°C° 0.1 mm 3 mps 759 mmHg 92%
    05:00 +9°C° 0.1 mm 3 mps 759 mmHg 93%
    06:00 +9°C° 0.1 mm 3 mps 759 mmHg 94%
    07:00 +9°C° 0.1 mm 3 mps 759 mmHg 94%
    08:00 +9°C° 0.1 mm 3 mps 759 mmHg 95%
    09:00 +10°C° 0.2 mm 3 mps 759 mmHg 93%
    10:00 +11°C° 0.2 mm 3 mps 759 mmHg 92%
    11:00 +11°C° 0.2 mm 4 mps 759 mmHg 90%
    12:00 +11°C° 0.1 mm 4 mps 759 mmHg 90%
    13:00 +11°C° 0.1 mm 3 mps 759 mmHg 90%
    14:00 +11°C° 0.1 mm 3 mps 758 mmHg 90%
    15:00 +11°C° 0.1 mm 3 mps 759 mmHg 92%
    16:00 +11°C° 0.1 mm 3 mps 759 mmHg 94%
    17:00 +10°C° 0.1 mm 3 mps 759 mmHg 96%
    18:00 +10°C° 0.1 mm 3 mps 759 mmHg 96%
    19:00 +10°C° 0.1 mm 3 mps 760 mmHg 96%
    20:00 +10°C° 0.1 mm 3 mps 760 mmHg 97%
    21:00 +10°C° 0.1 mm 3 mps 760 mmHg 96%
    22:00 +10°C° 0.1 mm 3 mps 761 mmHg 96%
    23:00 +10°C° 0.1 mm 3 mps 761 mmHg 96%

    Day after tomorrow, 17 December, Monday

    Time Temperature Precipitation Wind Pressure Humidity
    00:00 +9°C° 0.1 mm 3 mps 761 mmHg 95%
    01:00 +9°C° 0.1 mm 3 mps 761 mmHg 94%
    02:00 +8°C° 0.1 mm 4 mps 761 mmHg 94%
    03:00 +8°C° 0.1 mm 4 mps 761 mmHg 93%
    04:00 +8°C° 0.1 mm 4 mps 761 mmHg 93%
    05:00 +8°C° 0.1 mm 4 mps 760 mmHg 93%
    06:00 +8°C° 0.1 mm 4 mps 761 mmHg 93%
    07:00 +7°C° 0.1 mm 4 mps 761 mmHg 93%
    08:00 +7°C° 0.1 mm 4 mps 761 mmHg 93%
    09:00 +8°C° 0.1 mm 4 mps 761 mmHg 91%
    10:00 +9°C° 0.1 mm 5 mps 761 mmHg 89%
    11:00 +9°C° 0.1 mm 5 mps 761 mmHg 88%
    12:00 +9°C° 0.1 mm 5 mps 761 mmHg 89%
    13:00 +10°C° 0.1 mm 4 mps 760 mmHg 90%
    14:00 +10°C° 0.1 mm 3 mps 760 mmHg 91%
    15:00 +10°C° 0.1 mm 3 mps 760 mmHg 92%
    16:00 +9°C° 0.1 mm 3 mps 760 mmHg 93%
    17:00 +9°C° 0.1 mm 3 mps 760 mmHg 94%
    18:00 +8°C° 0.1 mm 4 mps 760 mmHg 95%
    19:00 +8°C° 0.1 mm 4 mps 760 mmHg 95%
    20:00 +8°C° 0.1 mm 4 mps 761 mmHg 95%
    21:00 +8°C° 0.1 mm 4 mps 760 mmHg 95%
    22:00 +8°C° 0.1 mm 4 mps 760 mmHg 95%
    23:00 +8°C° 0.1 mm 4 mps 760 mmHg 96%

    18 December, Tuesday

    Time Temperature Precipitation Wind Pressure Humidity
    00:00 +9°C° 0.2 mm 3 mps 760 mmHg 96%
    01:00 +9°C° 0.2 mm 3 mps 760 mmHg 96%
    02:00 +9°C° 0.2 mm 3 mps 760 mmHg 97%
    03:00 +9°C° 0.3 mm 3 mps 760 mmHg 97%
    04:00 +8°C° 0.3 mm 4 mps 760 mmHg 97%
    05:00 +8°C° 0.3 mm 4 mps 760 mmHg 97%
    06:00 +8°C° 0.5 mm 4 mps 760 mmHg 96%
    07:00 +8°C° 0.5 mm 4 mps 760 mmHg 96%
    08:00 +8°C° 0.5 mm 4 mps 760 mmHg 96%
    09:00 +8°C° 0.4 mm 5 mps 761 mmHg 95%
    10:00 +8°C° 0.4 mm 5 mps 761 mmHg 93%
    11:00 +8°C° 0.4 mm 5 mps 761 mmHg 92%
    12:00 +8°C° 0.3 mm 6 mps 761 mmHg 91%
    13:00 +8°C° 0.3 mm 7 mps 760 mmHg 90%
    14:00 +8°C° 0.3 mm 7 mps 760 mmHg 90%
    15:00 +6°C° 0.5 mm 8 mps 760 mmHg 89%
    16:00 +6°C° 0.5 mm 8 mps 761 mmHg 88%
    17:00 +6°C° 0.5 mm 8 mps 761 mmHg 88%
    18:00 +5°C° 0.2 mm 8 mps 761 mmHg 87%
    19:00 +5°C° 0.2 mm 8 mps 761 mmHg 87%
    20:00 +3°C° 0.2 mm 9 mps 762 mmHg 86%
    21:00 +4°C° 0.2 mm 8 mps 762 mmHg 86%
    22:00 +2°C° 0.2 mm 8 mps 762 mmHg 86%
    23:00 +2°C° 0.2 mm 8 mps 762 mmHg 86%

    19 December, Wednesday

    Time Temperature Precipitation Wind Pressure Humidity
    00:00 +1°C° 0.2 mm 8 mps 762 mmHg 86%
    01:00 +1°C° 0.2 mm 8 mps 762 mmHg 86%
    02:00 0°C° 0.2 mm 8 mps 763 mmHg 86%
    03:00 0°C° 0.1 mm 8 mps 763 mmHg 86%
    04:00 0°C° 0.1 mm 8 mps 763 mmHg 86%
    05:00 -1°C° 0.1 mm 7 mps 763 mmHg 85%
    06:00 -1°C° 0 mm 7 mps 763 mmHg 85%
    07:00 -1°C° 0 mm 7 mps 763 mmHg 84%
    08:00 -2°C° 0 mm 6 mps 764 mmHg 84%
    09:00 -1°C° 0 mm 6 mps 764 mmHg 80%
    10:00 -1°C° 0 mm 6 mps 764 mmHg 77%
    11:00 +1°C° 0 mm 6 mps 764 mmHg 73%
    12:00 +2°C° 0 mm 6 mps 764 mmHg 72%
    13:00 +2°C° 0 mm 6 mps 764 mmHg 71%
    14:00 +3°C° 0 mm 5 mps 763 mmHg 70%
    15:00 +2°C° 0 mm 5 mps 764 mmHg 74%
    16:00 +1°C° 0 mm 4 mps 764 mmHg 78%
    17:00 +1°C° 0 mm 4 mps 764 mmHg 82%
    18:00 +1°C° 0 mm 3 mps 764 mmHg 84%
    19:00 +1°C° 0 mm 3 mps 764 mmHg 85%
    20:00 +2°C° 0 mm 2 mps 765 mmHg 87%
    21:00 +2°C° 0 mm 2 mps 765 mmHg 87%
    22:00 +1°C° 0 mm 2 mps 765 mmHg 87%
    23:00 +2°C° 0 mm 1 mps 765 mmHg 88%

    20 December, Thursday

    Time Temperature Precipitation Wind Pressure Humidity
    00:00 +2°C° 0 mm 1 mps 765 mmHg 87%
    01:00 +2°C° 0 mm 1 mps 765 mmHg 87%
    02:00 +2°C° 0 mm 1 mps 765 mmHg 87%
    03:00 +2°C° 0 mm 1 mps 765 mmHg 87%
    04:00 +2°C° 0 mm 1 mps 765 mmHg 87%
    05:00 +2°C° 0 mm 1 mps 765 mmHg 87%
    06:00 +3°C° 0 mm 1 mps 766 mmHg 86%
    07:00 +3°C° 0 mm 1 mps 766 mmHg 86%
    08:00 +3°C° 0 mm 1 mps 766 mmHg 85%
    09:00 +4°C° 0 mm 1 mps 766 mmHg 81%
    10:00 +5°C° 0 mm 1 mps 767 mmHg 77%
    11:00 +6°C° 0 mm 1 mps 767 mmHg 73%
    12:00 +6°C° 0 mm 1 mps 766 mmHg 72%
    13:00 +7°C° 0 mm 1 mps 766 mmHg 71%
    14:00 +7°C° 0 mm 1 mps 766 mmHg 70%
    15:00 +6°C° 0 mm 2 mps 766 mmHg 75%
    16:00 +5°C° 0 mm 2 mps 766 mmHg 80%
    17:00 +4°C° 0 mm 2 mps 766 mmHg 84%
    18:00 +4°C° 0 mm 2 mps 766 mmHg 87%
    19:00 +3°C° 0 mm 3 mps 767 mmHg 89%
    20:00 +3°C° 0 mm 3 mps 767 mmHg 91%
    21:00 +3°C° 0 mm 3 mps 767 mmHg 91%
    22:00 +3°C° 0 mm 3 mps 767 mmHg 92%
    23:00 +3°C° 0 mm 3 mps 767 mmHg 92%
    Show more